Home > Weather > Tunis > Past weeks

Flag for Tunisia Past Weather in Tunis, Tunisia — Yesterday and Last 2 Weeks

Now
68 °F

Passing clouds.


Feels Like: 68 °F
Forecast: 68 / 100 °F
Wind: 3 mph from North

Location: Tunis-Carthage

Current Time: Jul 30, 2016 at 6:32:00 AM

Latest Report: Jul 30, 2016 at 5:30 AM


Visibility: 5 mi

Pressure: 30.01 "Hg

Humidity: 94%

Dew Point: 66 °F

Location of TunisLocation

Past Weather in Tunis — Graph

°F

Tunis Temperature Yesterday

Maximum temperature yesterday: 95 °F (at 12:00 PM)
Minimum temperature yesterday: 73 °F (at 10:30 PM)
Average temperature yesterday: 83 °F

High & Low Weather Summary for the Past Weeks

 TemperatureHumidityPressure
High104 °F (Jul 22, 2:30 PM)94% (Jul 30, 3:00 AM)30.15 "Hg (Jul 30, 3:00 AM)
Low61 °F (Jul 17, 5:00 AM)15% (Jul 22, 2:30 PM)29.89 "Hg (Jul 22, 2:00 PM)
Average81 °F51%30.03 "Hg
* Reported Jul 15 5:00 AM — Jul 30 5:30 AM, Tunis, Weather by CustomWeather, © 2016

Note: Actual official high and low records may vary slightly from our data, if they occured in-between our weather recording intervals... More about our weather records

Advertising

Tunis Weather History for the Previous 24 Hours

Scroll right to see more
 ConditionsComfort  
Time TempWeatherWind HumidityBarometerVisibility
5:30 AM
Sat, Jul 30
68 °FPassing clouds.3 mph94%30.01 "Hg5 mi
5:00 AM70 °FClear.2 mph94%30.01 "Hg10 mi
4:30 AM70 °FClear.2 mph94%30.01 "Hg10 mi
3:30 AM70 °FClear.2 mph94%30.01 "Hg10 mi
3:00 AM70 °FClear.3 mph94%30.01 "Hg10 mi
2:30 AM72 °FClear.3 mph88%30.01 "Hg10 mi
2:00 AM72 °FClear.3 mph88%30.01 "Hg10 mi
1:30 AM73 °FClear.2 mph83%30.01 "Hg10 mi
1:00 AM73 °FClear.3 mph83%30.01 "Hg10 mi
12:30 AM73 °FClear.3 mph83%30.01 "Hg10 mi
12:00 AM73 °FClear.No wind83%30.01 "Hg10 mi
11:30 PM
Fri, Jul 29
73 °FClear.6 mph78%30.01 "Hg10 mi
11:00 PM73 °FClear.5 mph78%30.01 "Hg10 mi
10:30 PM73 °FPassing clouds.3 mph78%30.01 "HgN/A
10:00 PM75 °FClear.5 mph74%30.01 "Hg10 mi
9:30 PM75 °FClear.5 mph78%30.01 "Hg10 mi
9:00 PM75 °FClear.5 mph74%30.01 "Hg10 mi
8:30 PM77 °FPassing clouds.6 mph79%29.98 "HgN/A
8:00 PM77 °FClear.8 mph79%29.98 "Hg10 mi
7:30 PM79 °FClear.9 mph74%29.98 "Hg10 mi
7:00 PM81 °FSunny.12 mph66%29.98 "Hg10 mi
6:30 PM82 °FSunny.13 mph62%29.98 "Hg10 mi
6:00 PM84 °FPassing clouds.9 mph51%29.95 "HgN/A
5:30 PM88 °FPassing clouds.12 mph46%29.95 "HgN/A
5:00 PM88 °FPassing clouds.14 mph40%29.95 "HgN/A
4:30 PM90 °FPassing clouds.14 mph41%29.95 "HgN/A
4:00 PM90 °FPassing clouds.14 mph43%29.98 "HgN/A
3:30 PM90 °FSunny.15 mph43%29.98 "Hg10 mi
3:00 PM91 °FSunny.16 mph38%29.98 "Hg10 mi
2:30 PM91 °FPassing clouds.15 mph38%29.98 "HgN/A
1:30 PM93 °FPassing clouds.15 mph39%29.98 "HgN/A
1:00 PM93 °FPassing clouds.12 mph41%29.98 "HgN/A
12:30 PM93 °FPassing clouds.9 mph36%29.98 "HgN/A
12:00 PM95 °FPassing clouds.12 mph28%29.98 "HgN/A
11:30 AM93 °FPassing clouds.13 mph32%29.98 "HgN/A
11:00 AM93 °FPassing clouds.8 mph30%30.01 "HgN/A
10:30 AM91 °FPassing clouds.9 mph34%30.01 "HgN/A
10:00 AM88 °FPassing clouds.10 mph35%30.01 "HgN/A
9:30 AM88 °FPassing clouds.7 mph35%30.01 "HgN/A
9:00 AM86 °FPassing clouds.8 mph38%30.01 "HgN/A
8:30 AM84 °FPassing clouds.8 mph40%30.01 "HgN/A
8:00 AM82 °FPassing clouds.9 mph42%30.01 "HgN/A
7:30 AM81 °FSunny.3 mph42%30.01 "Hg10 mi
7:00 AM81 °FPassing clouds.3 mph42%30.01 "HgN/A
6:30 AM77 °FPassing clouds.3 mph47%30.01 "HgN/A
6:00 AM75 °FPassing clouds.3 mph47%29.98 "HgN/A
Weather by CustomWeather, © 2016

See weather overviewHow to use our weather pages